Regional Weather Roundup
Issued by NWS

Home | Current Version | Previous Version | Graphics & Text | Print | Product List | Glossary On
Versions: 1 2 3 4 5 6 7 8 9 10 11 12 13 14 15 16 17 18 19 20 21 22 23 24 25 26 27 28 29 30 31 32 33 34 35 36 37 38 39 40 41 42 43 44 45 46 47 48 49 50
000
ASUS45 KPSR 262310
RWRAZ

ARIZONA REGIONAL HOURLY WEATHER ROUNDUP
NATIONAL WEATHER SERVICE PHOENIX AZ
400 PM MST THU FEB 26 2015

NOTE: FAIR INDICATES FEW OR NO CLOUDS BELOW 12,000 FEET WITH NO
SIGNIFICANT WEATHER AND/OR OBSTRUCTIONS TO VISIBILITY.

AZZ001>003-036-270000-
NORTHWEST ARIZONA

CITY           SKY/WX    TMP DP  RH WIND       PRES   REMARKS
BULLHEAD CITY  SUNNY     75  23  14 NW3       29.76F
KINGMAN        PTSUNNY   65  22  19 N10       29.82F
$$

AZZ004>008-015-016-018-270000-
NORTH CENTRAL ARIZONA

CITY           SKY/WX    TMP DP  RH WIND       PRES   REMARKS
GRAND CANYON   CLOUDY    47  20  34 W13G23    29.85F
PRESCOTT       PTSUNNY   58  18  21 W16       29.86F
FLAGSTAFF      CLOUDY    38  26  62 W12       29.90R WCI  30
PAYSON         MOSUNNY   55  21  26 SW8G20    29.88F
PAGE           CLOUDY    52  28  39 N13       29.79F
$$

AZZ009>014-017-270000-
NORTHEAST ARIZONA

CITY           SKY/WX    TMP DP  RH WIND       PRES   REMARKS
WINSLOW        MOSUNNY   56  21  25 W20G25    29.82F
SAINT JOHNS    CLOUDY    53   4  13 SW10G17   29.83F
WINDOW ROCK    CLOUDY    42  20  41 SW10      29.87F
SHOW LOW       PTSUNNY   48  16  27 SW15      29.88F
$$

AZZ023-270000-
GREATER PHOENIX AREA

CITY           SKY/WX    TMP DP  RH WIND       PRES   REMARKS
PHOENIX        MOSUNNY   75  23  14 W6        29.75F
BUCKEYE        SUNNY     73  27  17 SW6       29.77F
GLENDALE       MOSUNNY   73  27  17 S5        29.78F
LUKE AFB       SUNNY     74  27  17 SW6       29.74F
DEER VALLEY    SUNNY     71  22  15 W6        29.76F
SCOTTSDALE     SUNNY     72  23  16 CALM      29.78F
MESA-FALCON    MOSUNNY   73  25  16 W6        29.78F
MESA-GATEWAY   MOSUNNY   72  27  18 W7        29.80F
CHANDLER       MOSUNNY   73  27  17 SW9       29.78F
$$

AZZ027-028-270000-
SOUTHWEST MARICOPA COUNTY AND PINAL COUNTY

CITY           SKY/WX    TMP DP  RH WIND       PRES   REMARKS
CASA GRANDE    SUNNY     73  25  16 CALM      29.78F
GILA BEND      MOSUNNY   78  20  11 W8        29.77F
$$

AZZ503-504-507>509-270000-
SOUTHEAST ARIZONA

CITY           SKY/WX    TMP DP  RH WIND       PRES   REMARKS
TUCSON         SUNNY     73  22  14 NW12G17   29.81F
DAVIS-MONTHAN  SUNNY     72  23  16 NW15G21   29.78F
RYAN FIELD       N/A     75  23  14 W16       29.80F
NOGALES        SUNNY     71  19  14 W14G20    29.85F
SIERRA VISTA   MOSUNNY   66  18  15 W20G25    29.85F
DOUGLAS        SUNNY     69  20  15 W14G23    29.83F
SAFFORD        SUNNY     68  23  18 E7        29.78F
$$

AZZ020-021-025-026-031-270000-
SOUTHWEST ARIZONA

CITY           SKY/WX    TMP DP  RH WIND       PRES   REMARKS
YUMA           MOSUNNY   81  22  11 S8        29.74F
$$

CAZ031-033-041-043-047-048-061-270000-
SOUTHERN CALIFORNIA

CITY           SKY/WX    TMP DP  RH WIND       PRES   REMARKS
DOWNTOWN L.A.  SUNNY    N/A N/A N/A VRB5      29.85S
L.A. AIRPORT   MOSUNNY   62  52  69 SW9       29.86F
SAN DIEGO      MOSUNNY   64  50  60 SW9       29.88S
BURBANK        SUNNY     67  47  48 S9        29.83F
ONTARIO        PTSUNNY   69  39  33 W15G21    29.83S
RIVERSIDE      SUNNY     70  40  33 W12       29.83S
PALM SPRINGS   SUNNY     81  33  17 NW13      29.76F
EL CENTRO NAS  MOSUNNY   79  34  19 SE6       29.73F
IMPERIAL       SUNNY     80  32  17 NE5       29.73F
BLYTHE         SUNNY     78  27  15 S6        29.74F
NEEDLES        SUNNY     79  23  12 NE6       29.74F
$$

NVZ020-UTZ003-270000-
SOUTHERN NEVADA-UTAH

CITY           SKY/WX    TMP DP  RH WIND       PRES   REMARKS
LAS VEGAS      MOSUNNY   69  20  15 S9        29.74F
SALT LAKE CITY PTSUNNY   38  33  82 W9        29.91S WCI  31
$$

NMZ009-TXZ055-270000-
NEW MEXICO-WEST TEXAS

CITY           SKY/WX    TMP DP  RH WIND       PRES   REMARKS
ALBUQUERQUE    CLOUDY    40  22  48 E28G33    29.93F WCI  29
EL PASO        PTSUNNY   54  28  36 E15G23    29.95F
$$


........................KEY........................
SKY/WX - SKY CONDITION/WEATHER
TMP    - TEMPERATURE IN FAHRENHEIT
DP     - DEW POINT IN FAHRENHEIT
RH     - RELATIVE HUMIDITY IN PERCENT
WIND   - DIRECTION AND SPEED IN MILES PER HOUR (MPH)
VRB    - VARIABLE WIND DIRECTION
PRES   - MEAN SEA LEVEL PRESSURE IN INCHES OF MERCURY
         F - FALLING PRESSURE   R - RISING PRESSURE
         S - STEADY PRESSURE
VSB    - VISIBILITY IN MILES
HX     - HEAT INDEX IN FAHRENHEIT
WCI    - WIND CHILL INDEX IN FAHRENHEIT
TC     - TEMPERATURE IN CELSIUS WHICH IS ALSO KNOWN AS
         TEMPERATURE IN CENTIGRADE
AFB    - AIR FORCE BASE
         LUKE AFB IS LUKE AIR FORCE BASE
         DAVIS-MONTHAN IS DAVIS-MONTHAN AIR FORCE BASE
NAS    - NAVAL AIR STATION
         EL CENTRO NAS IS EL CENTRO NAVAL AIR STATION
N/A    - NOT AVAILABLE



USA.gov is the U.S. government's official web portal to all federal, state and local government web resources and services.